This is the latest recevied weather packets stored in our database for station/object KD7CIH. If no packets are shown the sender has not sent any weather packets the latest 10 day(s).
| Time | Temp. | Humidity | Pressure | Rain* | Wind** | Luminosity | Snow |
|---|---|---|---|---|---|---|---|
| 1777336446 | 4.44° C | 76% | 1006.3 hPa | 0 mm | - | - | - |
| 1777336274 | 5° C | 73% | 1006.3 hPa | 0 mm | - | - | - |
| 1777335972 | 5.56° C | 73% | 1006.3 hPa | 0 mm | - | - | - |
| 1777335545 | 5.56° C | 72% | 1006.1 hPa | 0 mm | - | - | - |
| 1777335245 | 5.56° C | 71% | 1006.1 hPa | 0 mm | - | - | - |
| 1777334948 | 5.56° C | 68% | 1006 hPa | 0 mm | - | - | - |
| 1777334646 | 5.56° C | 67% | 1006.1 hPa | 0 mm | - | - | - |
| 1777334346 | 5.56° C | 66% | 1006.1 hPa | 0 mm | - | - | - |
| 1777334046 | 5.56° C | 65% | 1006 hPa | 0 mm | - | - | - |
| 1777333875 | 5.56° C | 66% | 1005.9 hPa | 0 mm | - | - | - |
| 1777333445 | 5.56° C | 65% | 1005.8 hPa | 0 mm | - | - | - |
| 1777333271 | 5.56° C | 66% | 1005.9 hPa | 0 mm | - | - | - |
| 1777332847 | 5.56° C | 64% | 1005.8 hPa | 0 mm | - | - | - |
| 1777332547 | 5.56° C | 64% | 1005.8 hPa | 0 mm | - | - | - |
| 1777332374 | 5.56° C | 65% | 1005.7 hPa | 0 mm | - | - | - |
| 1777332073 | 5.56° C | 64% | 1005.5 hPa | 0 mm | - | - | - |
| 1777331774 | 6.11° C | 64% | 1005.5 hPa | 0 mm | - | - | - |
| 1777331346 | 6.11° C | 64% | 1005.4 hPa | 0 mm | - | - | - |
| 1777331048 | 6.11° C | 64% | 1005.3 hPa | 0 mm | - | - | - |
| 1777330746 | 6.11° C | 64% | 1005.4 hPa | 0 mm | - | - | - |
| 1777330448 | 5.56° C | 66% | 1005.3 hPa | 0 mm | - | - | - |
| 1777330147 | 5° C | 67% | 1005.4 hPa | 0 mm | - | - | - |
| 1777329849 | 5° C | 66% | 1005.4 hPa | 0 mm | - | - | - |
| 1777329547 | 5° C | 65% | 1005.4 hPa | 0 mm | - | - | - |
| 1777329247 | 5.56° C | 65% | 1005.5 hPa | 0 mm | - | - | - |
* Rain latest hour (hover to see other rain measurements)
** Current wind speed in m/s (hover to see current wind gust speed)